Location: Buensen
(51.7527°N, 9.8966°E)
Time: 05:29:09
(UTC+00:00)

Daily predictions for brighter satellites

Satellite Brightness Start Highest point End
(mag) Time Altitude Azimuth Time Altitude Azimuth Time Altitude Azimuth
SL-16 R/B 3.8 00:16:47 35° NNE 00:16:47 35° NNE 00:20:55 10° N
SL-16 R/B 4.1 00:39:05 25° N 00:39:05 25° N 00:41:54 10° NNE
ADEOS II 4.1 00:39:36 10° NE 00:42:13 23° ENE 00:42:13 23° ENE
ATLAS 5 CENTAUR R/B 4.3 01:00:34 17° NNE 01:00:34 17° NNE 01:01:53 10° NE
Cosmos 1821 Rocket 4.4 01:22:58 58° NE 01:22:58 58° NE 01:28:05 10° NNE
Cosmos 2123 Rocket 4.4 01:23:44 10° N 01:29:41 60° ENE 01:29:41 60° ENE
ATLAS CENTAUR R/B 4.3 01:36:30 14° ESE 01:36:30 14° ESE 01:38:49 10° E
Resurs 1-4 Rocket 3.3 01:34:15 10° N 01:37:26 37° N 01:37:26 37° N
Cosmos 1697 Rocket 3.3 01:36:10 10° NNW 01:41:44 54° NE 01:47:17 10° SE
CZ-2D R/B 3.2 01:39:29 10° N 01:42:55 39° N 01:42:55 39° N
ALOS 4.2 01:48:16 10° NE 01:52:00 23° E 01:53:05 21° ESE
IDEFIX/ARIANE 42P 3.2 01:47:50 10° NNE 01:51:47 52° NNE 01:51:47 52° NNE
SL-16 R/B 3.9 02:01:53 26° NW 02:01:53 26° NW 02:04:39 10° NNW
IRS-1D 4.1 01:57:33 10° NNE 02:02:46 53° E 02:02:58 53° ESE
Lacrosse 4 Rocket 3.9 02:18:07 10° NNW 02:21:28 21° NE 02:24:52 10° E
Cosmos 1666 Rocket 4.2 02:17:28 10° N 02:21:54 55° ENE 02:22:03 55° E
Cosmos 1980 Rocket 2.7 02:17:01 10° NNW 02:22:34 57° NE 02:28:04 10° SE
SL-16 R/B 4.4 02:20:57 12° NW 02:22:46 13° NNW 02:25:28 10° N
Meteor 2-11 Rocket 4.3 02:23:15 73° W 02:23:28 74° WNW 02:29:39 10° N
ADEOS II 2.6 02:18:59 10° N 02:23:08 46° NNW 02:23:08 46° NNW
Cosmos 1536 4.3 02:22:04 10° N 02:25:52 37° ENE 02:28:19 19° SE
Cosmos 1151 Rocket 3.6 02:28:11 51° E 02:28:14 51° E 02:32:24 10° NNE
Helios 1B rocket 4.4 02:26:19 10° NE 02:29:46 26° E 02:31:46 18° SE
Cosmos 1346 Rocket 4.2 02:30:39 32° ESE 02:31:17 34° E 02:34:54 10° NNE
Cosmos 2369 3.9 02:28:09 10° NNW 02:33:51 70° ENE 02:39:29 10° SE
USA 305 3.6 02:36:49 46° ESE 02:36:49 46° ESE 02:40:04 10° ENE
ARIANE 5 R/B 4.2 02:33:46 10° NNE 02:38:11 30° E 02:42:32 10° SSE
SL-16 R/B 4.0 02:37:32 10° NNW 02:42:31 30° NE 02:47:29 10° ESE
ATLAS 5 CENTAUR R/B 3.6 02:42:00 17° NNW 02:43:36 20° N 02:47:18 10° NE
Cosmos 676 Rocket 3.9 02:42:22 10° NNW 02:47:38 90° SW 02:52:53 10° SSE
Cosmos 1515 4.0 02:51:55 58° ESE 02:52:06 59° E 02:55:48 10° NNE
Cosmos 1470 Rocket 4.1 02:49:02 10° N 02:53:19 57° ENE 02:57:37 10° SSE
Meteor 1-10 Rocket 4.2 02:53:16 29° S 02:56:13 78° E 03:01:54 10° NNE
Cosmos 482 Debris 4.4 02:57:53 60° ESE 02:57:53 60° ESE 03:01:37 10° ESE
Cosmos 1624 Rocket 4.1 02:56:11 38° S 02:58:16 75° ESE 03:03:37 10° NNE
MSX 4.3 02:57:02 10° N 03:02:20 39° WNW 03:02:59 38° WNW
FENGYUN 3A 3.5 02:57:30 10° NNE 03:02:55 79° WNW 03:05:03 38° SSW
Cosmos 1833 Rocket 2.6 03:01:05 44° SW 03:02:57 84° WNW 03:08:40 10° NNE
CENTAUR R/B 4.0 02:59:09 10° S 03:04:14 31° ESE 03:10:13 10° NE
Cosmos 44 Rocket 4.3 03:02:24 23° S 03:04:45 39° ESE 03:09:08 10° NE
Cosmos 1447 Rocket 4.4 03:01:02 10° NNW 03:07:17 64° W 03:13:26 10° S
COSMOS 2455 4.5 03:03:16 10° NNW 03:08:38 32° NNE 03:13:58 10° E
Cosmos 1484 Rocket 4.3 03:06:08 10° NNE 03:09:51 36° E 03:13:31 10° SSE
Cosmos 1371 Rocket 3.9 03:10:55 38° SSW 03:13:00 81° WNW 03:18:16 10° NNE
Meteor 1-4 Rocket 2.6 03:09:28 10° NNW 03:12:36 61° NW 03:12:36 61° NW
ATLAS CENTAUR R/B 1.9 03:12:30 37° SSW 03:14:23 71° SE 03:19:14 10° NE
USA 307 2.8 03:13:49 58° SW 03:14:30 73° SSE 03:18:39 10° ENE
METEOR-M 4.3 03:10:41 10° NNE 03:16:04 72° ESE 03:21:24 10° S
SL-19 R/B 4.4 03:09:55 10° NNE 03:16:11 83° WNW 03:20:31 20° SSW
Resurs 1-4 Rocket 3.9 03:15:35 10° NNW 03:18:25 15° NW 03:18:30 15° NW
IRS-P3 4.4 03:14:36 10° NNE 03:19:58 67° ESE 03:25:15 10° S
ERBS 2.7 03:21:13 43° N 03:21:13 43° N 03:23:43 10° NE
CZ-2D R/B 4.0 03:21:06 10° NNW 03:23:52 14° NW 03:24:14 14° NW
Cosmos 2082 Rocket 2.5 03:19:35 15° SSW 03:24:12 64° ESE 03:29:47 10° NE
Cosmos 1697 Rocket 3.8 03:20:31 10° NW 03:27:50 24° SSW 03:30:26 10° SSW
USA 306 2.7 03:24:27 49° WSW 03:25:31 88° SSE 03:29:39 10° ENE
ALOS 2.4 03:25:08 10° N 03:29:41 53° WNW 03:31:32 32° SW
NOSS 3-2 (A) 4.3 03:24:53 10° S 03:30:02 43° ESE 03:36:00 10° NE
CZ-2C R/B 2.5 03:25:41 10° S 03:30:55 74° WSW 03:36:19 10° NNW
Cosmos 2360 Rocket 3.9 03:25:56 10° NNW 03:30:59 32° NE 03:36:00 10° ESE
Meteor 1-11 Rocket 4.0 03:26:12 10° NNW 03:32:00 52° W 03:37:43 10° SSW
IDEFIX/ARIANE 42P 4.1 03:28:28 10° N 03:32:02 19° NW 03:32:34 18° WNW
EO 1 Del DPAF 4.1 03:29:22 10° N 03:31:37 27° NW 03:31:37 27° NW
BREEZE-M DEB (TANK) 2.2 03:32:42 49° SSW 03:32:45 49° SSW 03:35:02 10° ESE
Cosmos 1850 Rocket 4.0 03:27:39 10° NNW 03:33:01 88° ENE 03:38:22 10° SSE
Cosmos 1743 3.0 03:31:37 10° NNW 03:35:12 40° W 03:35:15 40° W
Cosmos 1975 4.3 03:31:47 10° N 03:35:34 39° ENE 03:39:18 10° SE
CZ-2C R/B 2.4 03:30:47 10° N 03:35:44 61° WNW 03:38:51 22° SW
CBERS-1 4.3 03:31:24 10° N 03:36:18 47° WNW 03:38:49 26° SW
Cosmos 1605 Rocket 4.4 03:33:49 27° WSW 03:36:30 40° WNW 03:42:14 10° N
Cosmos 1459 Rocket 4.1 03:31:18 10° S 03:37:40 87° E 03:44:05 10° N
COSMOS 2406 3.1 03:34:02 20° SSW 03:38:08 84° WNW 03:43:51 10° NNE
Cosmos 2346 Rocket 4.4 03:33:08 10° NNW 03:39:10 67° W 03:45:12 10° S
PAYLOAD A 3.9 03:35:01 10° N 03:39:44 58° WNW 03:43:09 19° SW
Cosmos 2056 Rocket 3.6 03:40:20 26° SW 03:42:59 53° WNW 03:48:01 10° NNE
Cosmos 1441 Rocket 3.2 03:42:10 30° SW 03:43:42 54° WNW 03:47:25 10° N
DELTA 2 DEB (DPAF) 4.1 03:40:37 10° S 03:44:58 60° WSW 03:49:21 10° NNW
Cosmos 1633 Rocket 3.8 03:41:19 10° NNW 03:45:05 29° W 03:45:35 29° WSW
Tsikada Rocket 4.4 03:40:21 10° N 03:46:42 68° ENE 03:52:54 10° SSE
USA 308 2.7 03:46:41 30° WSW 03:48:39 84° NNW 03:52:48 10° ENE
Cosmos 1420 Rocket 4.1 03:46:30 22° SW 03:49:46 54° WNW 03:54:54 10° NNE
X-37B 2.1 03:50:05 19° SSW 03:50:13 20° S 03:52:24 10° SE
CZ-2C R/B 3.8 03:47:03 10° NNE 03:52:48 62° E 03:58:18 10° S
YAOGAN 6 2.5 03:50:12 10° NNE 03:53:52 88° E 03:57:29 10° SSW
Cosmos 1802 Rocket 4.0 03:47:51 10° S 03:54:13 90° NW 04:00:34 10° N
H-2A R/B 3.4 03:54:30 10° NNE 03:58:06 53° E 04:01:41 10° S
Cosmos 1933 Rocket 3.6 03:53:53 10° NNW 03:58:15 56° W 04:02:34 10° S
Cosmos 2322 Rocket 2.8 03:52:58 10° NNW 03:58:39 61° NE 04:04:15 10° SE
Meteor 1-19 Rocket 4.1 03:54:36 10° S 04:00:02 89° ESE 04:05:31 10° NNE
CZ-2C R/B 4.0 03:56:24 10° NNE 04:00:02 44° E 04:03:43 10° S
Cosmos 1725 Rocket 4.2 03:53:56 10° S 04:00:15 80° E 04:06:37 10° NNE
Lacrosse 4 Rocket 1.5 03:56:16 10° NW 04:00:39 88° SW 04:05:05 10° SSE
Cosmos 1536 3.9 03:58:44 10° NW 04:02:02 24° W 04:03:44 18° SW
ADEOS II 4.0 04:00:52 10° NNW 04:02:38 12° NW 04:04:03 11° WNW
Cosmos 1741 Rocket 4.0 03:57:38 10° NNW 04:02:47 58° WSW 04:07:53 10° S
Cosmos 1328 Rocket 4.3 04:00:53 19° WSW 04:03:22 33° WNW 04:07:23 10° N
PSLV R/B 4.4 03:59:21 10° NNE 04:03:37 53° E 04:07:49 10° S
Spot 4 Rocket 4.2 03:59:08 10° NNE 04:04:18 77° ESE 04:09:26 10° SSW
Helios 1B rocket 3.0 04:01:13 10° N 04:04:59 37° WNW 04:07:56 15° SW
Cosmos 1151 Rocket 4.3 04:05:02 19° W 04:06:06 21° WNW 04:09:21 10° NNW
Cosmos 1980 Rocket 2.9 04:01:28 10° NW 04:06:17 30° WSW 04:11:05 10° SSW
Cosmos 1346 Rocket 3.9 04:06:06 20° W 04:07:36 25° WNW 04:10:57 10° N
Cosmos 2173 Rocket 4.0 04:05:01 10° SSW 04:11:01 56° WNW 04:17:01 10° N
Meteor 2-9 Rocket 4.3 04:06:07 10° NNW 04:11:43 53° W 04:17:08 10° S
USA 234 4.5 04:06:10 10° ENE 04:12:14 39° SE 04:18:15 10° SSW
GP-B 3.1 04:10:16 10° SSW 04:14:38 59° W 04:19:02 10° N
USA 305 2.9 04:12:19 17° W 04:15:22 68° N 04:19:29 10° ENE
STPSAT 2 (USA 217) 4.5 04:11:31 10° NNW 04:16:02 76° WSW 04:20:29 10° SSE
ARIANE 5 R/B 2.8 04:12:38 10° N 04:17:28 46° WNW 04:22:13 10° SW
SKYMED 2 3.8 04:14:20 10° SSE 04:18:40 78° ENE 04:23:02 10° NNW
Cosmos 1331 Rocket 4.2 04:14:32 10° SSW 04:19:40 75° ESE 04:24:51 10° NNE
CZ-2D R/B 3.7 04:18:37 10° N 04:22:22 42° WNW 04:26:09 10° SW
Cosmos 2278 4.1 04:19:20 10° NW 04:24:33 39° WSW 04:29:44 10° S
SL-08 R/B 3.9 04:21:32 10° SSW 04:25:45 33° W 04:30:04 10° NNW
SL-24 R/B - RUBIN 2 4.1 04:21:59 10° SSW 04:26:20 59° SE 04:30:38 10° NE
SL-16 R/B 2.2 04:21:27 10° NW 04:27:07 69° WSW 04:32:44 10° SSE
Cosmos 1515 Rocket 4.2 04:23:30 10° SW 04:27:36 35° WNW 04:31:43 10° N
ATLAS 5 CENTAUR R/B 3.6 04:25:19 10° NW 04:29:29 29° NNE 04:34:27 10° E
NOAA 11 4.3 04:25:54 10° NNE 04:31:26 87° ESE 04:36:55 10° SSW
Cosmos 1110 Rocket 4.0 04:27:46 10° SSW 04:32:59 81° WNW 04:38:12 10° NNE
BREEZE M DEB (TANK) 3.7 04:22:16 10° WSW 04:33:10 56° SSE 04:36:36 10° E
Meteor 1-27 Rocket 4.5 04:28:20 10° SW 04:33:36 34° WNW 04:38:59 10° N
MINOTAUR 4 R/B 4.1 04:31:07 10° S 04:34:33 53° W 04:38:00 10° NNW
Cosmos 2228 Rocket 3.1 04:30:42 10° S 04:35:11 87° W 04:39:40 10° N
Cosmos 1452 Rocket 3.7 04:30:27 10° SW 04:35:37 57° WNW 04:40:52 10° NNE
Cosmos 1733 3.3 04:35:43 10° N 04:39:28 77° E 04:43:12 10° SSE
USA 290 3.2 04:36:24 10° NNW 04:39:34 52° ENE 04:42:43 10° SE
Envisat 3.3 04:35:07 10° N 04:40:01 48° WNW 04:44:52 10° SW
CZ-4C R/B 4.1 04:38:47 10° SSW 04:42:39 34° W 04:46:38 10° NNW
Meteor 2-19 Rocket 4.5 04:36:40 10° NNW 04:42:48 66° W 04:48:52 10° S
Cosmos 1484 Rocket 3.9 04:40:39 10° N 04:44:00 26° WNW 04:47:20 10° WSW
Cosmos 44 Rocket 3.7 04:41:44 10° WSW 04:46:14 44° NW 04:50:47 10° NE
Meteor 1-18 Rocket 4.2 04:40:41 10° SSW 04:46:20 67° WNW 04:51:57 10° N
Okean 1 4.3 04:43:40 10° SW 04:47:10 28° WNW 04:50:41 10° N
Cosmos 1378 4.0 04:44:20 10° SW 04:47:32 28° WNW 04:50:45 10° N
Cosmos 1833 Rocket 4.0 04:43:15 10° W 04:47:44 23° NW 04:52:15 10° NNE
Meteor 1-29 3.8 04:45:44 10° N 04:48:38 29° WNW 04:51:31 10° SW
Cosmos 968 Rocket 3.5 04:45:38 10° NNW 04:50:45 62° WSW 04:55:48 10° S
